Location: Lansingburgh
(42.7845°N, 73.6696°W)
Time: 18:01:59
(UTC+00:00)

CORIOLIS - Pass Details

Date: 24 January 2020
Orbit: 818 x 839 km, 98.7° (Epoch: 22 February)

Event Time Altitude Azimuth Distance (km) Brightness Sun altitude
Rises 22:20:31 0° 161° (SSE) 3,351 7.4 -4.8°
Reaches altitude 10° 22:22:52 10° 161° (SSE) 2,419 6.6 -5.2°
Maximum altitude 22:28:13 82° 75° (ENE) 836 4.2 -6.1°
Drops below altitude 10° 22:33:36 10° 348° (NNW) 2,425 6.5 -7.1°
Sets 22:35:57 0° 348° (NNW) 3,360 7.3 -7.5°
